"Pseudo-MPEC" for GG0372

Created 2023 Sep 19 16:22:18 UT using Find_Orb

Click here for an explanation of pseudo-MPECs

 
 Astrometry: 
     GG0372 *MC2023 09 09e8nmAe*w'T!NAstrometrykig?+CcAX6R2mh_iKwnjredacted;iQ62
     GG0372  MC2023 09 09]0click(BbcPc7ASX:^UWYhn1;S:*hereXkSIZo,DQ(,:Xp,y#n;Q62
     GG0372  MC2023 09 09NKus`5:VsrGLA'v(LM02Bi((B_jfor!Nexplanationvji\a$P=RQ62

Station data:
(Q62) iTelescope Observatory, Siding Spring  (S31.273286 E149.064420)
   Australia/NSW.  Observers H. Sato, T. Prystavski, M. Mattiazzo, A. Pearce,
   F. D. Romanov. 0.51-m f/6.8 astrograph + CCD + f/4.5 focal reducer0.43-m
   f/6.8 astrograph + CCD + focal reducer0.43-m f/6.8 astrograph + CCD0.10-m
   f/5 astrograph + CCD0.127-m f/5.6 refractor + CCD0.50-m f/6.8 reflector +
   CCD0.30-m f/9 reflector + CCD.

Orbital elements:  GG0372
   Perihelion 2023 Jul 9.02621 +/- 45.5 TT =  0:37:44 (JD 2460134.52621)
Epoch 2023 Sep  9.0 TT = JDT 2460196.5   Earth MOID: 0.0643      AutoNEOCP
M  23.90986438 +/- 24               (J2000 ecliptic)
n   0.38580606 +/- 0.306            Peri.  105.89462 +/- 70
a   1.86877355 +/- 0.988            Node   159.30813 +/- 44
e   0.5589657 +/- 0.258             Incl.   21.66184 +/- 9
P   2.55/933.09d           H 22.81  G  0.15   U 11.9  SR
q 0.82419307 +/- 0.261    Q 2.91335402 +/- 38.9
From 3 observations 2023 Sept. 9 (43.1 min); mean residual 0".03
Residuals in arcseconds: 
230909 Q62  .03-  .02+    230909 Q62  .05+  .03-    230909 Q62  .03-  .02+    

Ephemerides (geocentric):
Date (UTC) HH   RA             Dec           delta  r     elong  mag " sig PA
---- --------  ------------   ------------  ------ ------ -----  --- --------
2023 09 19 16  23 01 40.642   -30 34 01.13  .28011 1.2533 149.1 21.7  42d  99
2023 09 19 17  23 01 43.637   -30 34 53.20  .28059 1.2537 149.1 21.7  43d  99
2023 09 19 18  23 01 46.624   -30 35 44.99  .28107 1.2541 149.1 21.7  43d  99
2023 09 19 19  23 01 49.605   -30 36 36.52  .28155 1.2544 149.0 21.7  43d  99
2023 09 19 20  23 01 52.580   -30 37 27.78  .28204 1.2548 149.0 21.7  43d  99
2023 09 19 21  23 01 55.548   -30 38 18.77  .28252 1.2551 149.0 21.7  43d  99
2023 09 19 22  23 01 58.509   -30 39 09.50  .28300 1.2555 148.9 21.7  43d  99
2023 09 19 23  23 02 01.465   -30 39 59.96  .28348 1.2558 148.9 21.7  43d  99
2023 09 20 00  23 02 04.414   -30 40 50.16  .28396 1.2562 148.8 21.7  43d  99
2023 09 20 01  23 02 07.356   -30 41 40.10  .28445 1.2565 148.8 21.7  43d  99
2023 09 20 02  23 02 10.293   -30 42 29.78  .28493 1.2569 148.8 21.7  43d  99
2023 09 20 03  23 02 13.223   -30 43 19.19  .28541 1.2572 148.7 21.7  43d  99
2023 09 20 04  23 02 16.147   -30 44 08.35  .28590 1.2576 148.7 21.7  43d  99
2023 09 20 05  23 02 19.065   -30 44 57.25  .28638 1.2579 148.7 21.7  43d  99
2023 09 20 06  23 02 21.977   -30 45 45.90  .28686 1.2583 148.6 21.7  43d 100
2023 09 20 07  23 02 24.882   -30 46 34.29  .28735 1.2586 148.6 21.7  43d 100
2023 09 20 08  23 02 27.782   -30 47 22.42  .28783 1.2590 148.6 21.7  43d 100
2023 09 20 09  23 02 30.675   -30 48 10.31  .28831 1.2594 148.5 21.8  43d 100
2023 09 20 10  23 02 33.563   -30 48 57.94  .28880 1.2597 148.5 21.8  43d 100
2023 09 20 11  23 02 36.444   -30 49 45.32  .28928 1.2601 148.5 21.8  43d 100
2023 09 20 12  23 02 39.320   -30 50 32.44  .28977 1.2604 148.4 21.8  43d 100
2023 09 20 13  23 02 42.189   -30 51 19.33  .29025 1.2608 148.4 21.8  44d 100
2023 09 20 14  23 02 45.053   -30 52 05.96  .29073 1.2611 148.3 21.8  44d 100
2023 09 20 15  23 02 47.911   -30 52 52.35  .29122 1.2615 148.3 21.8  44d 100
2023 09 20 16  23 02 50.763   -30 53 38.49  .29170 1.2618 148.3 21.8  44d 100
2023 09 20 17  23 02 53.610   -30 54 24.38  .29219 1.2622 148.2 21.8  44d 100
2023 09 20 18  23 02 56.450   -30 55 10.03  .29267 1.2625 148.2 21.8  44d 100
2023 09 20 19  23 02 59.285   -30 55 55.44  .29316 1.2629 148.2 21.8  44d 100
2023 09 20 20  23 03 02.114   -30 56 40.61  .29365 1.2632 148.1 21.8  44d 100
2023 09 20 21  23 03 04.938   -30 57 25.54  .29413 1.2636 148.1 21.8  44d 100
2023 09 20 22  23 03 07.756   -30 58 10.23  .29462 1.2639 148.1 21.8  44d 100
2023 09 20 23  23 03 10.568   -30 58 54.68  .29510 1.2643 148.0 21.8  44d 100
2023 09 21 00  23 03 13.375   -30 59 38.89  .29559 1.2647 148.0 21.8  44d 100
2023 09 21 01  23 03 16.176   -31 00 22.87  .29608 1.2650 148.0 21.8  44d 100
2023 09 21 02  23 03 18.972   -31 01 06.61  .29656 1.2654 147.9 21.8  44d 100
2023 09 21 03  23 03 21.762   -31 01 50.11  .29705 1.2657 147.9 21.8  44d 100
2023 09 21 04  23 03 24.547   -31 02 33.39  .29754 1.2661 147.9 21.8  44d 100
2023 09 21 05  23 03 27.326   -31 03 16.43  .29802 1.2664 147.8 21.8  44d 100
2023 09 21 06  23 03 30.100   -31 03 59.23  .29851 1.2668 147.8 21.9  44d 100
2023 09 21 07  23 03 32.869   -31 04 41.81  .29900 1.2671 147.7 21.9  44d 100
2023 09 21 08  23 03 35.632   -31 05 24.16  .29949 1.2675 147.7 21.9  44d 100
2023 09 21 09  23 03 38.390   -31 06 06.28  .29997 1.2678 147.7 21.9  44d 100
2023 09 21 10  23 03 41.143   -31 06 48.17  .30046 1.2682 147.6 21.9  44d 100
2023 09 21 11  23 03 43.890   -31 07 29.83  .30095 1.2685 147.6 21.9  44d 100
2023 09 21 12  23 03 46.633   -31 08 11.27  .30144 1.2689 147.6 21.9  44d 100
2023 09 21 13  23 03 49.370   -31 08 52.48  .30193 1.2692 147.5 21.9  44d 100
2023 09 21 14  23 03 52.101   -31 09 33.47  .30241 1.2696 147.5 21.9  45d 100
2023 09 21 15  23 03 54.828   -31 10 14.23  .30290 1.2699 147.5 21.9  45d 100